COSMOS 2476 (744)

Last updated on Oct. 25, 2020, 5:57 a.m. UTC

1 37867U 11064A   20298.51788213  .00000055  00000-0  00000+0 0  9998
2 37867  64.5404 142.7913 0018508 233.1915 131.1707  2.13101924 69883
UTC
Height (km)
Latitude
Longitude
Inclination
Orbital Period
UTC large
Height (km)
Speed (km/s)
/
Latitude / Longitude
Inclination (degrees)
Orbital Period (minutes)
Azimuth
Elevation
Range (km)
Doppler Factor
iOS Compass Heading
iOS Angle

Next 30 passes for location: Hong Kong

Rise time Rise Azimuth (degrees) Set time Set Azimuth (degrees) Duration Max altitude (degrees)

No matching passes for this satellites